Location: Newark
(40.1500°N, 18.0667°E)
Time: 09:17:53
(UTC+00:00)

Hubble Space Telescope - Visible Passes

Search period start: 26 February 2020 00:00
Search period end: 07 March 2020 00:00
Orbit: 536 x 540 km, 28.5° (Epoch: 25 February)

Date Brightness Start Highest point End Pass type
(mag) Time Alt. Az. Time Alt. Az. Time Alt. Az.
26 Feb 3.1 17:56:35 10° SW 17:58:52 14° S 18:00:52 11° SSE visible
27 Feb 3.2 17:46:05 10° SW 17:48:07 13° S 17:50:10 10° SSE visible
28 Feb 3.3 17:35:43 10° SW 17:37:21 12° SSW 17:38:59 10° S visible
29 Feb 3.5 17:25:41 10° SSW 17:26:35 11° SSW 17:27:29 10° S visible
